This is the latest recevied weather packets stored in our database for station/object KB1WCR. If no packets are shown the sender has not sent any weather packets the latest 10 day(s).
| Time | Temp. | Humidity | Pressure | Rain* | Wind** | Luminosity | Snow |
|---|---|---|---|---|---|---|---|
| 1778009999 | 23.89° C | 53% | 1004.1 hPa | 0 mm | - | 508 W/m² | - |
| 1778009696 | 24.44° C | 51% | 1004.2 hPa | 0 mm | - | 422 W/m² | - |
| 1778009394 | 24.44° C | 51% | 1004 hPa | 0 mm | - | 526 W/m² | - |
| 1778009092 | 24.44° C | 52% | 1004 hPa | 0 mm | - | 536 W/m² | - |
| 1778008789 | 24.44° C | 51% | 1004.3 hPa | 0 mm | - | 561 W/m² | - |
| 1778008488 | 24.44° C | 50% | 1004.3 hPa | 0 mm | - | 574 W/m² | - |
| 1778008184 | 25° C | 50% | 1004.4 hPa | 0 mm | - | 558 W/m² | - |
| 1778007879 | 25.56° C | 50% | 1004.6 hPa | 0 mm | - | 653 W/m² | - |
| 1778007575 | 25° C | 53% | 1004.6 hPa | 0 mm | - | 248 W/m² | - |
| 1778007273 | 25° C | 51% | 1004.7 hPa | 0 mm | - | 210 W/m² | - |
| 1778006969 | 25° C | 51% | 1004.7 hPa | 0 mm | - | 705 W/m² | - |
| 1778006666 | 25.56° C | 51% | 1004.7 hPa | 0 mm | - | 259 W/m² | - |
| 1778006362 | 25° C | 53% | 1004.8 hPa | 0 mm | - | 693 W/m² | - |
| 1778006059 | 25.56° C | 52% | 1004.9 hPa | 0 mm | - | 679 W/m² | - |
| 1778005756 | 24.44° C | 54% | 1004.8 hPa | 0 mm | - | 743 W/m² | - |
| 1778005453 | 24.44° C | 53% | 1004.6 hPa | 0 mm | - | 316 W/m² | - |
| 1778005149 | 25° C | 54% | 1005 hPa | 0 mm | - | 685 W/m² | - |
| 1778004847 | 25° C | 56% | 1005 hPa | 0 mm | - | 713 W/m² | - |
| 1778004543 | 24.44° C | 55% | 1005 hPa | 0 mm | - | 670 W/m² | - |
| 1778004240 | 23.89° C | 57% | 1005 hPa | 0 mm | - | 648 W/m² | - |
| 1778003936 | 23.33° C | 57% | 1005.1 hPa | 0 mm | - | 592 W/m² | - |
| 1778003633 | 23.89° C | 56% | 1005.1 hPa | 0 mm | - | 692 W/m² | - |
| 1778003329 | 23.89° C | 54% | 1005.3 hPa | 0 mm | - | 671 W/m² | - |
| 1778003027 | 23.89° C | 56% | 1005.3 hPa | 0 mm | - | 656 W/m² | - |
| 1778002723 | 23.89° C | 55% | 1005 hPa | 0 mm | - | 666 W/m² | - |
* Rain latest hour (hover to see other rain measurements)
** Current wind speed in m/s (hover to see current wind gust speed)